Résultats sport de masse course à pied

Résultats : Les Galopades tranchaises - Trail 8km

Classement général Classement Catégorie Nom, prénom Catégorie Sexe Club Temps global
4 1 CHAIGNE Matthieu SE M 00:37:08
5 1 JAIN-GARCIA Celine SE F SEMELLES DE VENT 00:37:27
14 2 TISSANDIER Alrick SE M 00:43:16
16 3 RENAUD Guillaume SE M 00:44:02
20 4 RELET Axel SE M 00:45:27
23 5 DANIAUD Florian SE M 00:46:33
26 6 GUYOT Jimmy SE M 00:47:40
27 7 PINEAU BAPTISTE SE M TEAM COSEL 00:47:46
28 8 HARDY Cedric SE M LES ESSARTS 00:47:47
29 9 JANIERE Alban SE M 00:47:50
33 10 DESGROUAS Sebastien SE M 00:48:41
34 11 SAVIN Tanguy SE M 00:48:45
35 12 ROBIN Pierrick SE M 00:49:08
36 13 GAUTIER Emmanuel SE M 00:49:14
38 14 BEAUBEAU Teddy SE M 00:50:03
39 15 MAURICE Arnaud SE M 00:50:03
42 2 FERRE Marjorie SE F 00:50:11
43 16 FERRE GWENAEL SE M 00:50:11
48 3 DESTENAY Véronique SE F 00:51:27
49 4 LEYMARIE MARION SE F 00:51:42
50 5 BARON Hélène SE F 00:52:04
51 6 BOURASSEAU Anne-Sophie SE F 00:52:09
52 17 MOREAU Frédéric SE M 00:52:09
55 18 GAUDIN Franck SE M 00:52:31
57 19 COIRIER TONY SE M 00:52:35
58 20 AQUILO Nicolas SE M 00:52:36
63 21 BIZIEN Nicolas SE M ALNIGUI 00:53:08
65 7 TALBOURDET Cécile SE F 00:53:39
68 22 BLANCHARD Quentin SE M 00:54:02
74 23 THIBAUD Thomas SE M 00:54:55
84 24 PUAUD MARC ANDRE SE M 00:57:22
87 8 COUTURIER Mélanie SE F 00:57:51
88 9 MERLET Estelle SE F 00:58:21
95 25 BARON Olivier SE M 00:59:44
96 10 FERRY Adèle SE F 00:59:51
98 11 TRIBODET Anne SE F 01:00:17
102 12 GROSDENIER Aurore SE F 01:00:31
103 13 MAIXANDEAU-DUARTE Aurélie SE F 01:00:41
108 14 BOUHIER Fanny SE F 01:01:33
109 15 EON Alexandra SE F 01:01:52
111 16 PEROCHEAU Amandine SE F 01:01:55
114 26 LEMERCIER ARNAUD SE M OPERATION HOMARD LE RETOUR 01:02:12
115 17 LEMERCIER VIRGINIE SE F OPERATION HOMARD LE RETOUR 01:02:12
116 27 LEBRETON ANTHONY SE M OPERATION HOMARD LE RETOUR 01:02:12
119 18 MAILLAUD Céline SE F 01:02:16
120 19 SORIN Charline SE F 01:02:16
127 20 LAMI Charlotte SE F 01:02:47
128 28 MIGNOT SYLVAIN SE M 01:02:53
134 21 POIRIER Tatiana SE F 01:03:13
135 29 ROBIN Victor SE M 01:03:13
Première page Page précédente 1 2